Green Bay, WI

11:08 AM CDT on May 27, 2018 (GMT -0500)
Austin Straubel International

Weather History for KGRB - June, 2013

Change the Weather History Date:

Friday, June 14, 2013

  Actual Average Record
Temperature  
Mean Temperature 64 °F 64 °F  
Max Temperature 76 °F 75 °F 97 °F (1987)
Min Temperature 52 °F 54 °F 34 °F (1958)
Degree Days  
Heating Degree Days 1 3  
Month to date heating degree days 61 61  
Since 1 June heating degree days 61 61  
Since 1 July heating degree days 7703 7924  
Cooling Degree Days 0 3  
Month to date cooling degree days 14 24  
Year to date cooling degree days 52 42  
Since 1 June cooling degree days 14 24  
Growing Degree Days 14 (Base 50)    
Moisture  
Dew Point 49 °F    
Average Humidity 64    
Maximum Humidity 86    
Minimum Humidity 41    
Precipitation  
Precipitation 0.00 in 0.14 in 1.62 in (1899)
Month to date precipitation 1.20 1.84  
Year to date precipitation 14.97 11.49  
Snow  
Snow 0.00 in 0.00 in 0.00 in ()
Month to date snowfall 0.0 0.0  
Since 1 June snowfall 0.0 0.0  
Since 1 July snowfall 74.2 51.4  
Snow Depth 0.00 in    
Sea Level Pressure  
Sea Level Pressure 30.10 in    
Wind  
Wind Speed 7 mph (ENE)    
Max Wind Speed 15 mph    
Max Gust Speed 18 mph    
Visibility 10 miles    
Events      
T = Trace of Precipitation, MM = Missing Value Source: NWS Daily Summary

Daily Weather History Graph

Daily Weather History Graph

Search for Another Location

Airport or City:

Astronomy

Jun. 14, 2013 Rise Set
Actual Time 5:07 AM CDT 8:38 PM CDT
Civil Twilight 4:30 AM CDT 9:15 PM CDT
Nautical Twilight 3:41 AM CDT 10:04 PM CDT
Astronomical Twilight 2:39 AM CDT 11:06 PM CDT
Moon 10:53 AM CDT (6/14) No Moon Set
Length of Visible Light 16h 45m
Length of Day
15h 31m
Waxing Crescent, 30% of the Moon is Illuminated
Jun 14
Waxing Crescent
Jun 16
First Quarter
Jun 23
Full
Jun 29
Last Quarter
Jul 8
New

Hourly Weather History & Observations

Time (CDT) Temp. Dew Point Humidity Pressure Visibility Wind Dir Wind Speed Gust Speed Precip Events Conditions
12:53 AM 55.9 °F 52.0 °F 87% 30.11 in 10.0 mi NW 5.8 mph - N/A   Clear
1:53 AM 55.0 °F 51.1 °F 86% 30.10 in 10.0 mi North 3.5 mph - N/A   Clear
2:53 AM 54.0 °F 48.9 °F 83% 30.10 in 10.0 mi North 6.9 mph - N/A   Clear
3:53 AM 52.0 °F 46.9 °F 83% 30.11 in 10.0 mi North 11.5 mph - N/A   Clear
4:53 AM 52.0 °F 46.0 °F 80% 30.13 in 10.0 mi North 5.8 mph - N/A   Clear
5:53 AM 52.0 °F 46.0 °F 80% 30.12 in 10.0 mi NNE 6.9 mph - N/A   Clear
6:53 AM 55.9 °F 48.0 °F 75% 30.14 in 10.0 mi North 6.9 mph - N/A   Clear
7:53 AM 60.1 °F 50.0 °F 69% 30.15 in 10.0 mi NE 6.9 mph - N/A   Clear
8:53 AM 63.0 °F 51.1 °F 65% 30.17 in 10.0 mi ENE 5.8 mph - N/A   Clear
9:53 AM 66.0 °F 53.1 °F 63% 30.15 in 10.0 mi NE 6.9 mph - N/A   Clear
10:53 AM 68.0 °F 52.0 °F 56% 30.15 in 10.0 mi NE 4.6 mph - N/A   Clear
11:53 AM 71.1 °F 48.9 °F 45% 30.14 in 10.0 mi Variable 5.8 mph - N/A   Clear
12:53 PM 72.0 °F 50.0 °F 46% 30.12 in 10.0 mi Variable 4.6 mph - N/A   Clear
1:53 PM 73.9 °F 52.0 °F 46% 30.11 in 10.0 mi ENE 5.8 mph - N/A   Clear
2:53 PM 75.0 °F 52.0 °F 44% 30.11 in 10.0 mi NE 9.2 mph - N/A   Clear
3:53 PM 75.0 °F 53.1 °F 46% 30.09 in 10.0 mi ENE 8.1 mph - N/A   Clear
4:53 PM 73.9 °F 50.0 °F 43% 30.06 in 10.0 mi East 4.6 mph - N/A   Clear
5:53 PM 73.9 °F 48.0 °F 40% 30.04 in 10.0 mi East 10.4 mph - N/A   Clear
6:53 PM 70.0 °F 48.0 °F 46% 30.04 in 10.0 mi SE 11.5 mph - N/A   Clear
7:53 PM 66.0 °F 46.9 °F 50% 30.05 in 10.0 mi ESE 6.9 mph - N/A   Clear
8:53 PM 64.9 °F 46.0 °F 50% 30.05 in 10.0 mi SE 5.8 mph - N/A   Clear
9:53 PM 61.0 °F 48.0 °F 62% 30.06 in 10.0 mi SSE 4.6 mph - N/A   Clear
10:53 PM 61.0 °F 46.0 °F 58% 30.05 in 10.0 mi SSE 5.8 mph - N/A   Clear
11:53 PM 60.1 °F 41.0 °F 49% 30.00 in 10.0 mi South 12.7 mph - N/A   Overcast